Regional Weather Roundup
Issued by NWS

Home | Current Version | Previous Version | Graphics & Text | Print | Product List | Glossary On
Versions: 1 2 3 4 5 6 7 8 9 10 11 12 13 14 15 16 17 18 19 20 21 22 23 24 25 26 27 28 29 30 31 32 33 34 35 36 37 38 39 40 41 42 43 44 45 46 47 48 49 50
000
ASUS43 KMPX 210001
RWRMN
WEATHER ROUNDUP FOR MINNESOTA
NATIONAL WEATHER SERVICE TWIN CITIES/CHANHASSEN MN
700 PM CDT FRI OCT 20 2017


NOTE: "FAIR" INDICATES FEW OR NO CLOUDS BELOW 12,000 FEET WITH NO
SIGNIFICANT WEATHER AND/OR OBSTRUCTIONS TO VISIBILITY. N/A MEANS
CURRENT SKY AND/OR WEATHER CONDITIONS ARE NOT AVAILABLE.

MNZ060>063-068>070-210100-
   Twin Cities Metro

CITY           SKY/WX    TMP DP  RH WIND       PRES   REMARKS
TWIN CITIES    CLOUDY    71  46  40 S15G22    29.73S
6HR MIN TEMP:  71; 6HR MAX TEMP:  78;

ST PAUL        CLOUDY    69  45  41 S16       29.74S
CRYSTAL        CLOUDY    71  43  36 S16G23    29.70S
BLAINE         MOCLDY    73  43  33 S15G23    29.71S
LAKEVILLE      CLOUDY    66  48  52 S10       29.74R
EDEN PRAIRIE   CLOUDY    70  47  43 S16       29.71R
6HR MIN TEMP:  70; 6HR MAX TEMP:  78;

SOUTH ST PAUL  CLEAR     71  42  34 S13G23    29.74R
LAKE ELMO      FAIR      68  43  40 S12G22    29.75S
$$
MNZ001>005-007-008-013>017-022>024-027-028-210100-
   Northwest Minnesota

CITY           SKY/WX    TMP DP  RH WIND       PRES   REMARKS
BEMIDJI        PTCLDY    69  50  50 S14G22    29.54S
HALLOCK        CLOUDY    72  52  49 S22G29    29.36S
ROSEAU         PTCLDY    73  55  53 S16G23    29.44R
WARROAD        PTCLDY    70  55  60 SE13G20   29.46R
CROOKSTON      CLOUDY    73  54  49 S26G37    29.41S
FOSSTON        CLEAR     70  48  46 S23G30    29.48S
DETROIT LAKES  CLEAR     70  50  49 S13       29.53S
MOORHEAD       CLEAR     72  54  53 S18       29.46R
PARK RAPIDS    CLEAR     71  52  50 S18G25    29.56S
MAHNOMEN       FAIR      69  52  54 S13G20    29.49R
$$
MNZ006-009>011-018-025>026-210100-
   North Central Minnesota

CITY           SKY/WX    TMP DP  RH WIND       PRES   REMARKS
BAUDETTE       PTCLDY    70  50  49 SE13G23   29.50S
FLAG ISLAND    PTCLDY    57  48  72 S18       29.44S
INTL FALLS     PTCLDY    71  47  42 S9G17     29.56F
6HR MIN TEMP:  71; 6HR MAX TEMP:  79;

WASKISH        PTCLDY    70  52  52 SE12G21   29.53R
BIG FORK       PTCLDY    70  48  46 S10G21    29.60R
LONGVILLE      PTCLDY    70  50  49 SE15G24   29.60S
GRAND RAPIDS   MOCLDY    70  49  47 S15G21    29.64S
CRANE LAKE     CLOUDY    64  46  52 SE7       29.65S
ORR            CLOUDY    68  45  42 SE12G17   29.61S
COOK           PTCLDY    68  48  49 S8        29.65F
WALKER         FAIR      70  50  49 S17G23    29.56S
$$
MNZ012-019>021-037-210100-
   Northeast Minnesota

CITY           SKY/WX    TMP DP  RH WIND       PRES   REMARKS
DULUTH         CLOUDY    62  47  57 SE9       29.72S
6HR MIN TEMP:  62; 6HR MAX TEMP:  75;

ELY            PTCLDY    66  45  45 S12       29.69S
HIBBING        CLOUDY    67  45  45 S7        29.66S
EVELETH        PTCLDY    66  32  28 S6        29.69S
DULUTH HARBOR  MOCLDY    55  54  94 N7        29.72R
TWO HARBORS    PTCLDY    59  50  72 NE3       29.71S
GRAND MARAIS     N/A     53  49  86 NE6       29.75F
G MARAIS ARPRT PTCLDY    57  43  58 S3        29.78F
$$
MNZ029>031-032-039>041-046>048-054>057-064-210100-
   West Central Minnesota

CITY           SKY/WX    TMP DP  RH WIND       PRES   REMARKS
FERGUS FALLS   PTCLDY    70  54  56 S21G28    29.51R
WHEATON        MOCLDY    72  52  49 SE18      29.51R
MORRIS         PTCLDY    66  54  63 S9        29.54R
ALEXANDRIA     CLEAR     70  51  51 S17       29.59S
ELBOW LAKE     FAIR      68  54  59 S17G24    29.54R
WADENA         CLEAR     70  52  52 S16G24    29.56R
GLENWOOD       CLEAR     70  52  52 S23G31    29.60R
APPLETON       CLEAR     73  50  43 S10G20    29.54S
BENSON         CLEAR     72  52  49 S17       29.58S
ORTONVILLE     PTCLDY    70  54  56 N9G17     29.53R
MADISON        CLEAR     73  55  53 S13G18    29.55R
WILLMAR        FAIR      72  52  49 S14G23    29.62S
$$
MNZ033>034-036-042>043-049>051-058-059-210100-
   Central Minnesota

CITY           SKY/WX    TMP DP  RH WIND       PRES   REMARKS
ST CLOUD       CLEAR     69  47  45 SE14      29.66S
6HR MIN TEMP:  69; 6HR MAX TEMP:  77;

SAUK CENTRE    FAIR      67  50  54 SE14      29.62R
PAYNESVILLE    CLEAR     71  50  47 S16G23    29.64S
AITKIN         CLOUDY    66  46  48 S15G22    29.63S
PINE RIVER     CLEAR     66  50  55 S15G22    29.64S
BRAINERD       CLEAR     70  48  45 S14G25    29.63S
STAPLES        CLEAR     70  48  46 SE13G20   29.59S
LONG PRAIRIE   FAIR      68  50  52 SE10      29.62S
LITTLE FALLS   CLEAR     70  37  30 SE12G17   29.64S
LITCHFIELD     CLEAR     72  50  46 SE7       29.66S
BUFFALO        CLOUDY    70  46  42 SE12G17   29.69S
MAPLE LAKE     CLEAR     70  50  50 SE8       29.68S
HUTCHINSON     CLOUDY    70  50  49 SE9G18    29.68S
$$
MNZ037-044-045-052-053-210100-
   East Central Minnesota

CITY           SKY/WX    TMP DP  RH WIND       PRES   REMARKS
PRINCETON      CLEAR     72  46  40 SE13      29.69S
MORA           PTCLDY    68  45  42 S7        29.71S
CAMBRIDGE      CLEAR     73  52  46 SE12G18   29.70S
RUSH CITY      PTCLDY    69  44  40 SE10G16   29.71S
MOOSE LAKE     CLOUDY    68  43  40 S9G16     29.68S
HINCKLEY       FAIR      70  46  43 S10       29.71F
CLOQUET        PTCLDY    70  37  30 S8        29.71R
MCGREGOR       CLOUDY    68  48  49 S12G18    29.66F
$$
MNZ071>073-080-081-089-090-097-098-210100-
   Southwest Minnesota

CITY           SKY/WX    TMP DP  RH WIND       PRES   REMARKS
MONTEVIDEO     CLEAR     72  52  49 S10G20    29.57S
GRANITE FALLS  CLEAR     72  54  53 SE20G28   29.60R
CANBY          PTCLDY    72  55  53 S12G23    29.56R
MARSHALL       PTCLDY    72  55  55 S25G33    29.58R
REDWOOD FALLS  CLEAR     71  51  49 S23G33    29.62S
OLIVIA         CLEAR     70  50  49 S18G24    29.62S
PIPESTONE      CLEAR     68  55  64 S20G29    29.61R
WORTHINGTON    CLEAR     69  55  60 S14G25    29.66S
JACKSON        CLEAR     68  52  56 S18G26    29.70S
TRACY          PTCLDY    71  57  60 S20G29    29.62R
SLAYTON        PTCLDY    69  56  63 S20G31    29.64R
$$
MNZ065>067-074>077-082>085-091>093-210100-
   South Central Minnesota

CITY           SKY/WX    TMP DP  RH WIND       PRES   REMARKS
MANKATO        CLOUDY    69  48  47 S15G22    29.72S
NEW ULM        PTCLDY    70  48  46 S18G29    29.67S
ST JAMES       CLEAR     70  52  52 SE23      29.69S
FAIRMONT       CLEAR     68  51  54 S21       29.72R
GLENCOE        CLEAR     72  47  42 S10G20    29.68S
FARIBAULT      CLOUDY    70  48  46 SE14G21   29.76S
OWATONNA       CLEAR     68  48  49 SE16      29.76S
WASECA         CLEAR     68  46  45 S14       29.76S
$$
MNZ078>079-086>088-094>096-210100-
   Southeast Minnesota

CITY           SKY/WX    TMP DP  RH WIND       PRES   REMARKS
ROCHESTER      CLOUDY    66  47  50 S17G24    29.82S
6HR MIN TEMP:  66; 6HR MAX TEMP:  76;

RED WING       CLOUDY    70  37  30 S13G18    29.76S
STANTON        PTCLDY    69  45  41 S10G18    29.75R
DODGE CENTER   CLOUDY    66  45  45 S16G23    29.80R
WINONA         CLOUDY    70  41  35 S8        29.83F
AUSTIN         CLOUDY    66  46  48 S10G16    29.81R
PRESTON        CLOUDY    65  44  46 S15       29.84S
$$
ABBREVIATIONS USED IN REMARKS
   TC - TEMPERATURES IN CELSIUS
  WCI - WIND CHILL INDEX
   HX - HEAT INDEX
  VSB - VISIBILITY
$$




USA.gov is the U.S. government's official web portal to all federal, state and local government web resources and services.